Location: Croisilles
(50.1998°N, 2.8793°E)
Time: 20:40:35
(UTC+00:00)

H-2A R/B - Pass Details

Date: 21 January 2021
Orbit: 734 x 836 km, 98.2° (Epoch: 02 March)

Event Time Altitude Azimuth Distance (km) Brightness Sun altitude
Rises 17:40:12 0° 141° (SE) 3,181 5.0 -12.0°
Reaches altitude 10° 17:42:34 10° 134° (SE) 2,273 4.2 -12.3°
Maximum altitude 17:47:13 40° 66° (ENE) 1,115 2.4 -13.1°
Drops below altitude 10° 17:52:00 10° 358° (N) 2,345 4.4 -13.8°
Sets 17:54:28 0° 351° (N) 3,295 5.2 -14.2°
